Regional Weather Roundup
Issued by NWS Upton, NY

Current Version | Previous Version | Text Only | Print | Product List | Glossary On
Versions: 1 2 3 4 5 6 7 8 9 10 11 12 13 14 15 16 17 18 19 20 21 22 23 24 25 26 27 28 29 30 31 32 33 34 35 36 37 38 39 40 41 42 43 44 45 46 47 48 49 50
000
ASUS41 KOKX 201305
RWROKX
REGIONAL WEATHER ROUNDUP
NATIONAL WEATHER SERVICE NEW YORK NY
900 AM EDT WED AUG 20 2014

NOTE: "FAIR" INDICATES FEW OR NO CLOUDS BELOW 12,000 FEET WITH NO
SIGNIFICANT WEATHER AND/OR OBSTRUCTIONS TO VISIBILITY.

NYZ071-072-176-178-NJZ106-104-201400-
NEW YORK CITY METRO AREA


CITY           SKY/WX    TMP DP  RH WIND       PRES   REMARKS
CENTRAL PARK   PTSUNNY   74  64  71 CALM      30.02R
LAGUARDIA APRT PTSUNNY   74  66  76 NE8       29.99R
KENNEDY INTL   PTSUNNY   74  64  71 SE5       30.00S
NEWARK/LIBERTY PTSUNNY   75  62  64 S6        29.99R
BRNX BOT. GARD   N/A     73  64  73 SE5       30.01R
TETERBORO      CLOUDY    74  64  71 CALM      29.98S
$$

NYZ177-179-078>081-201400-
LONG ISLAND NEW YORK

CITY           SKY/WX    TMP DP  RH WIND       PRES   REMARKS
FARMINGDALE    MOSUNNY   72  64  76 CALM      30.00R
ISLIP          MOSUNNY   74  64  71 NE3       29.99R
SHIRLEY        SUNNY     72  66  81 CALM      30.01R
WESTHAMPTON    SUNNY     73  65  75 E3        30.02R
MONTAUK POINT    N/A     65  65 100 VRB3      30.01S
$$

NYZ052-065-067-201400-
HUDSON VALLEY

CITY           SKY/WX    TMP DP  RH WIND       PRES   REMARKS
WHITE PLAINS   PTSUNNY   69  66  90 SE5       30.00S
NEWBURGH       PTSUNNY   70  66  88 CALM      30.01R
MONTGOMERY     CLOUDY    69  63  81 CALM      30.00R
POUGHKEEPSIE   PTSUNNY   72  66  81 CALM      29.98S
ALBANY         CLOUDY    66  59  78 CALM      29.99S
$$

NJZ001-105-106-008-010-013-015-019>022-104-201400-
NEW JERSEY

CITY           SKY/WX    TMP DP  RH WIND       PRES   REMARKS
NEWARK/LIBERTY PTSUNNY   75  62  64 S6        29.99R
TETERBORO      CLOUDY    74  64  71 CALM      29.98S
CALDWELL       CLOUDY    72  64  76 CALM      30.00S
MORRISTOWN     PTSUNNY   72  66  83 CALM      30.00S
SOMERVILLE     CLOUDY    72  64  76 CALM      29.98S
LINDEN         PTSUNNY   78  65  64 CALM      30.01S
SUSSEX         CLOUDY    72  63  73 SW3       30.00R
ANDOVER        NOT AVBL
TRENTON        MOSUNNY   72  64  76 SE3       29.99R
MILLVILLE      CLOUDY    73  65  75 E6        29.99R
ATLANTIC CITY  SUNNY     74  66  76 E5        29.99R
WRIGHTSTOWN    MOSUNNY   73  66  77 E3        29.97S
TOMS RIVER     MOSUNNY   73  64  73 E3        29.99S
BELMAR         PTSUNNY   73  63  68 E9        29.99S
$$

PAZ047>061-062-071-201400-
EASTERN PENNSYLVANIA

CITY           SKY/WX    TMP DP  RH WIND       PRES   REMARKS
PHILADELPHIA   PTSUNNY   74  65  73 CALM      29.99R
ALLENTOWN      PTSUNNY   73  63  70 S3        29.99S
SCRANTON       SUNNY     73  61  65 VRB6      29.98S
$$

CTZ002-004>006-009-010-012-RIZ004-006-007-MAZ004-011-015-201400-
SOUTHERN NEW ENGLAND
 IN CT

CITY           SKY/WX    TMP DP  RH WIND       PRES   REMARKS
BRADLEY INTL   PTSUNNY   66  58  75 N3        30.01R
HARTFORD       PTSUNNY   66  59  78 CALM      30.01S
DANBURY        MOSUNNY   69  64  84 CALM      30.02S
WTRBRY/OXFORD  NOT AVBL
BRIDGEPORT     PTSUNNY   69  66  90 E3        30.00R
MERIDEN        CLOUDY    64  62  93 CALM      30.01S
NEW HAVEN      CLOUDY    68  66  93 N3        30.01S FOG
CHESTER        CLOUDY    63  63 100 CALM      30.02S FOG
GROTON         SUNNY     67  64  90 CALM      30.00S
WILLIMANTIC    CLOUDY    59  58  96 CALM      30.02S

 IN RI

CITY           SKY/WX    TMP DP  RH WIND       PRES   REMARKS
PROVIDENCE     PTSUNNY   72  60  66 VRB3      30.01R
BLOCK ISLAND   MOSUNNY   68  63  83 NE6       30.00S
WESTERLY       FOG      N/A N/A N/A CALM      30.01R VSB 1/2

 IN MA

CITY           SKY/WX    TMP DP  RH WIND       PRES   REMARKS
BOSTON         MOSUNNY   67  56  67 E5        30.01S
WORCESTER      SUNNY     69  58  67 VRB3      30.03R
WESTFIELD      SUNNY     65  57  75 N5        30.02R
PROVINCETOWN   SUNNY     68  61  77 MISG      30.02R
NANTUCKET      SUNNY     69  53  56 NE6       30.00S
$$

ANZ330-335-338-340-345-350-353-355-201400-
COASTAL MARINE OBSERVATIONS


STATION/POSITION TIME  SKY/WX   TEMP    WIND        PRES    VSBY  WAVE
                                AIR SEA DIR/SP/G                  HT/PER
                 (UTC)          (F)     (DEG/KT/KT) (MB)    (MI)  (FT/S)
NY HARB ENTRANCE NOT AVBL
4S FIRE IS       NOT AVBL
23SW MTP         1200            71 69              1015.2          1/ 9
HUDSON CANYON    1300            72 73   40/ 12/ 14 1015.0          3/ 5
EXECUTION ROCKS  1300            72 73   90/  4/  6   N/A
WESTERN LI SOUND 1300            70      50/  6/  8   N/A           0
CENTRAL LI SOUND 1200            67 72   70/  6/  6   N/A           0
EASTERN LI SOUND 1200            64 68   10/  4/  4   N/A
ROBBINS REEF     1300            72     190/  2/  2   N/A
$$


>>>>>>>>>>>>>>>>>>>>>>>>>>>> KEY <<<<<<<<<<<<<<<<<<<<<<<<<<<
>                                                          <
>     SKY/WX - SKY CONDITION/PRESENT WEATHER               <
>     TMP    - TEMPERATURE IN FAHRENHEIT                   <
>     DP     - DEWPOINT IN FAHRENHEIT                      <
>     RH     - RELATIVE HUMIDITY IN PERCENT                <
>     WIND   - DIRECTION AND SPEED IN MPH                  <
>     PRES   - MEAN SEA LEVEL PRESSURE IN INCHES OF HG     <
>     WCI    - WIND CHILL INDEX                            <
>     VSB    - VISIBILITY IN MILES                         <
>     HX     - HEAT INDEX                                  <
>     TC     - TEMPERATURE IN CELSIUS                      <
>     VRB    - VARIABLE WIND DIRECTION                     <
>                                                          <
>>>>>>>>>>>>>>>>>>>>>>>>>>>> KEY <<<<<<<<<<<<<<<<<<<<<<<<<<<





USA.gov is the U.S. government's official web portal to all federal, state and local government web resources and services.